Regional Weather Roundup
Issued by NWS Newport/Morehead, NC

Current Version | Previous Version | Text Only | Print | Product List | Glossary Off
Versions: 1 2 3 4 5 6 7 8 9 10 11 12 13 14 15 16 17 18 19 20 21 22 23 24 25 26 27 28 29 30 31 32 33 34 35 36 37 38 39 40 41 42 43 44 45 46 47 48 49 50

000
ASUS42 KMHX 261525
RWRMHX
WEATHER ROUNDUP FOR EASTERN NORTH CAROLINA
NATIONAL WEATHER SERVICE NEWPORT/MOREHEAD CITY NC
1100 AM EDT SUN MAR 26 2017

NOTE: "FAIR" INDICATES FEW OR NO CLOUDS BELOW 12,000 FEET
WITH NO SIGNIFICANT WEATHER AND/OR OBSTRUCTIONS TO VISIBILITY

NCZ015>017-031-032-045>047-102-103-261600-
NORTH COAST

CITY           SKY/WX    TMP DP  RH WIND       PRES   REMARKS
EDENTON        PTSUNNY   69  57  66 CALM      30.30R
ELIZABETH CITY CLOUDY    69  56  62 VRB3      30.29S
KITTY HAWK     NOT AVBL
MANTEO         MOSUNNY   67  56  68 SW5       30.30S

$$

NCZ045>047-081-094-103-104-261600-
CENTRAL COAST

CITY           SKY/WX    TMP DP  RH WIND       PRES   REMARKS
FRISCO         MOSUNNY   71  55  56 S6        30.29S

$$

NCZ095-097-098-100-101-261600-
SOUTHERN COAST

CITY           SKY/WX    TMP DP  RH WIND       PRES   REMARKS
BEAUFORT       MOSUNNY   72  53  51 SE5       30.28S
CEDAR ISLAND   NOT AVBL
JACKSONVILLE   CLOUDY    73  55  53 SE10      30.26S
PINEY ISLAND   CLOUDY   N/A N/A N/A S12       30.28S
WILMINGTON     MOSUNNY   72  54  53 S10       30.25F


$$

NCZ011>013-027>030-043-044-078>080-089-090>093-098-261600-
COASTAL PLAIN

CITY           SKY/WX    TMP DP  RH WIND       PRES   REMARKS
AHOSKIE          N/A     65  55  69 S3        30.28S
CLINTON        CLOUDY    70  57  63 S5        30.26S
ELIZABETHTOWN  MOSUNNY   71  56  61 SE5       30.25S
GOLDSBORO      MOSUNNY   69  57  64 SE10      30.25S
GREENVILLE     PTSUNNY   72  54  53 S8        30.28S
HAVELOCK       NOT AVBL
KENANSVILLE    CLOUDY    70  54  56 SE6       30.26S
KINSTON        MOSUNNY   72  54  53 S6        30.27S
NEW BERN       PTSUNNY   71  55  56 VRB6      30.29R
RICHLANDS      CLOUDY    72  55  56 SE8       30.27S
ROCKY MOUNT    MOSUNNY   67  57  70 S3        30.27S
WASHINGTON     MOSUNNY   69  56  61 SE5       30.28S
WHITEVILLE     SUNNY     72  54  52 S8        30.24S

$$

AMZ130-135-150-152-154-156-158-170-250-252-270-ANZ085-086-088-633-658-670-261600-
MARINE OBSERVATIONS

STATION/POSITION TIME  TEMP    WIND        PRES    WAVE   SWELL
                       AIR SEA DIR/SP/G            HT/PER HT/PER
                 (UTC) (F)     (DEG/KT/KT) (MB)    (FT/S) (FT/S)
CHESAPEAKE LIGHT NOT AVBL
64 E VA BEACH    1450   55 51  160/  4/  6 1026.2    2/ 5   2/ 5
DUCK             1500   63 47  230/  6/  7 1025.3
2 E DUCK         1500      51                N/A     2/10
OREGON INLET     1500      58  180/  5/  6 1026.0
13E OREGON INLT  1448      50                N/A     2/ 8   2/ 8
HATTERAS CG      1500   69 58  160/  5/  7 1025.6
DIAMOND BUOY     1450   69 74  170/ 10/ 14 1026.0    3/ 8   2/ 8
CAPE LOOKOUT     1500   69     130/  3/  4 1025.2
BEAUFORT LAB     1500   70 55  190/  5/  7 1024.5
30 SE NEW RVR IN 1508   67     170/  2/  4 1025.4
30 SE NEW RVR IN 1443      65                N/A     3/ 8
27 SE WRIGHTSVLE 1508   67 63  200/  2/  4 1024.1
5 SE WRIGHTSVLE  1508   63 58  130/  8/ 12 1024.5
225 S CAPE HAT   1450   68 72   90/ 10/ 14 1025.5    5/ 8   5/ 8
41 SE CHARLESTON 1450   72 72  140/ 14/ 17 1022.8    4/ 8   3/ 8

$$




USA.gov is the U.S. government's official web portal to all federal, state and local government web resources and services.